User: anonymous   Login
Location: Unspecified
(0.0000°N, 0.0000°E)
Time: 07:17:41
(UTC+00:00)
Language:

NAVSTAR 65 (USA 213) - Orbit

View from above orbital plane
View from above orbital plane
View from above satellite
View from above satellite

Ground track
Ground track

The orbit data is extracted from the following two-line orbital elements,

1 36585U 10022A   17291.63962687 -.00000065  00000-0  00000+0 0  9990
2 36585  55.9320 335.7302 0064266  45.3645  75.7956  2.00556196 54133
Epoch (UTC): 18 October 2017 15:21:03
Eccentricity: 0.0064266
inclination: 55.9320°
perigee height: 20012 km
apogee height: 20353 km
right ascension of ascending node: 335.7302°
argument of perigee: 45.3645°
revolutions per day: 2.00556196
mean anomaly at epoch: 75.7956°
orbit number at epoch: 5413

The dashed part of the orbit path shows where the satellite is in the earth's shadow,  

DLR